Theta_e
313 313 313 312 310 311 311 308 309 310 308 305 305 305 305 305 304 304 304 306 306 306 309 311 311 312 312 313 315 318 316 319 320 323 325 327 329 331 330 328 327 327 328 327 326
312 312 312 312 311 309 310 312 308 310 312 309 303 304 305 305 304 307 320 318 307 308 309 309 312 313 311 313 314 315 316 318 320 322 323 324 324 328 326 327 326 327 328 327 325
311 311 310 310 309 308 307 311 312 309 312 313 308 302 304 303 315 322 320 312 311 308 309 309 312 313 311 313 314 316 315 317 320 322 322 322 323 323 321 323 325 323 325 325 324
306 307 307 306 306 306 306 307 312 311 311 313 313 304 302 301 321 323 317 308 308 307 308 309 311 314 311 311 316 314 317 317 319 320 321 320 323 324 321 320 321 321 321 322 322
302 302 302 303 303 304 305 306 309 312 309 313 312 311 301 314 316 319 315 308 310 306 307 309 312 316 312 313 315 315 316 318 319 319 319 321 320 321 320 320 320 320 321 321 321
305 305 304 304 304 304 306 307 308 312 310 312 312 312 305 316 318 318 312 308 307 308 312 312 316 318 316 314 313 318 317 318 319 319 319 319 319 320 320 320 320 320 320 320 320
309 311 311 310 308 307 307 308 310 312 309 310 313 312 309 307 316 317 314 310 309 315 315 317 317 317 317 314 317 318 317 317 317 319 319 320 318 318 320 320 319 319 319 319 320
313 313 312 311 310 310 310 309 310 312 309 310 314 310 313 316 314 316 316 316 317 316 316 317 317 319 319 319 319 318 317 316 316 318 319 319 316 319 320 320 320 319 319 320 320
313 313 311 310 310 310 311 310 311 311 309 312 314 316 317 316 313 314 317 317 316 316 317 319 319 319 319 316 315 318 315 316 316 316 318 316 317 318 320 320 320 320 320 320 320
312 313 313 312 311 312 311 311 312 309 316 314 316 316 317 318 313 315 319 317 315 316 318 318 318 316 314 315 315 317 315 316 317 318 318 316 316 317 320 320 320 320 320 320 320
311 312 312 311 312 312 313 312 322 319 318 316 317 316 318 318 314 316 319 317 316 317 316 317 314 315 315 316 317 317 317 317 319 318 318 316 317 317 320 320 320 320 320 320 320
312 311 311 312 312 312 313 312 319 319 320 320 321 320 320 319 316 317 318 317 317 316 316 317 315 317 319 319 319 318 318 317 318 320 318 319 319 320 320 319 320 321 321 321 322
311 311 311 313 314 315 316 315 318 318 318 319 320 320 320 318 319 317 318 318 317 316 318 317 319 319 319 318 319 319 319 318 318 318 318 320 318 319 319 320 321 321 321 321 321
311 310 312 313 318 319 319 318 317 317 319 323 322 321 318 318 318 319 317 318 318 318 318 318 319 320 319 319 318 318 318 318 318 319 318 319 318 319 319 320 320 321 321 321 321
310 310 312 314 313 318 316 317 317 319 333 322 320 319 318 317 319 320 319 318 318 318 318 317 318 319 318 318 318 317 320 320 320 318 318 319 318 318 319 320 320 319 320 320 320
308 310 313 315 318 316 317 316 318 322 331 324 320 320 318 318 319 319 319 318 318 318 317 317 318 319 319 319 319 320 319 319 320 318 318 319 319 319 320 321 320 319 320 320 320
308 312 313 313 319 318 318 318 324 328 326 324 320 319 319 319 319 319 319 317 316 316 317 318 317 318 319 320 319 319 317 318 320 321 321 322 323 321 322 320 319 317 320 320 320
308 313 316 313 317 319 320 321 329 327 324 321 321 320 320 319 319 319 319 318 316 316 317 320 321 320 321 321 320 321 320 324 327 324 322 322 325 325 320 319 320 320 320 319 319
308 314 318 318 318 319 321 325 328 324 321 320 320 321 320 321 321 321 319 319 320 318 322 322 322 321 321 321 319 320 319 320 320 322 321 320 320 321 321 319 319 320 319 319 318
308 315 320 322 318 319 322 325 326 320 319 320 320 322 322 323 322 322 323 322 323 321 318 320 321 320 321 321 320 320 319 322 320 324 323 321 320 322 320 318 317 316 317 317 317
309 320 321 319 318 321 323 325 323 319 318 319 320 321 321 321 322 323 324 322 322 321 318 319 320 321 320 322 321 321 318 318 320 324 319 320 320 319 318 316 316 316 316 316 316
312 320 320 319 322 323 324 324 319 319 318 319 320 320 320 320 320 322 322 322 320 320 320 321 320 322 321 319 321 320 318 319 321 322 320 319 320 319 319 316 316 315 316 317 317
311 315 319 318 319 321 324 323 320 319 319 319 319 320 320 320 320 320 321 319 319 320 320 320 319 320 320 319 319 321 320 318 320 320 321 321 322 319 317 316 318 317 317 317 316
311 319 319 318 317 319 320 321 320 319 319 318 319 318 319 319 318 320 320 319 318 318 319 318 319 320 321 325 322 323 322 320 316 315 316 316 316 316 316 317 317 316 315 315 314
313 319 315 318 317 318 319 318 318 319 319 318 318 318 317 318 317 317 319 318 318 318 317 316 317 318 317 318 320 321 321 321 321 319 317 316 317 316 315 315 314 315 314 314 314
313 314 314 314 314 317 318 318 318 318 317 318 317 316 315 316 316 316 316 316 316 317 319 316 316 317 318 318 318 318 319 321 321 320 319 317 316 315 316 315 314 313 313 313 312
312 312 313 314 315 315 317 317 316 315 315 315 314 313 313 313 313 313 313 314 315 315 316 317 318 317 318 318 318 320 318 318 318 318 317 315 316 314 313 313 312 312 312 311 310
Wind_Speed
18 22 25 26 26 24 22 19 18 16 15 14 13 12 13 13 14 17 23 16 15 20 8 12 14 16 19 21 22 28 8 11 16 15 14 2 9 27 13 3 7 7 20 17 5
21 22 23 26 26 24 24 21 18 16 15 15 13 12 13 15 17 20 7 8 14 10 18 15 14 16 23 16 19 11 11 15 13 14 11 16 12 15 20 3 3 7 15 5 5
23 24 25 24 24 24 22 23 20 16 13 14 14 13 13 14 12 3 7 10 7 13 13 14 14 16 24 24 27 17 14 10 22 29 28 15 3 18 9 4 8 11 5 2 5
23 24 24 24 23 22 22 21 21 19 14 12 13 13 12 10 0 5 13 7 5 9 15 14 14 10 11 13 32 9 20 24 21 27 26 6 14 22 11 11 15 9 11 8 5
23 23 24 24 22 21 21 21 22 18 14 12 12 12 10 7 13 7 14 1 8 13 18 18 13 22 11 13 22 15 15 28 30 30 26 6 7 7 12 17 16 12 10 8 4
23 23 24 24 23 22 21 21 22 18 14 11 11 11 8 7 3 8 7 4 9 15 18 18 16 22 23 18 11 17 23 21 28 30 23 9 6 8 12 16 18 15 9 8 7
23 25 25 25 25 23 22 21 21 19 11 10 9 9 11 19 2 4 6 9 12 18 15 20 22 26 25 9 34 27 6 12 12 10 7 5 4 8 22 22 22 19 15 15 14
23 25 27 27 26 25 22 21 21 16 9 9 7 6 10 3 12 10 4 6 1 11 17 20 25 12 8 18 15 6 2 5 8 8 10 11 7 10 24 29 23 25 18 15 17
26 27 28 27 28 28 24 19 19 11 7 6 4 4 12 4 11 11 11 9 8 11 15 14 6 7 13 3 5 1 4 5 10 12 9 8 4 13 18 14 14 19 18 15 15
28 29 31 32 34 29 23 17 13 4 5 5 6 7 11 11 13 13 12 11 9 9 6 6 5 3 6 2 5 7 8 8 11 17 17 9 8 9 11 16 20 20 21 20 19
31 31 33 37 27 19 17 11 1 3 10 11 10 9 10 5 13 12 12 9 11 9 6 12 2 6 12 11 11 7 8 8 5 4 13 9 6 7 5 6 7 19 22 26 20
29 30 34 33 19 12 13 8 9 10 11 17 20 20 15 6 7 10 13 9 9 7 9 4 10 14 15 14 14 12 5 6 6 6 2 4 5 2 3 7 15 12 11 11 8
28 29 32 23 10 5 6 9 4 6 6 12 25 24 14 5 6 14 17 16 7 10 11 10 11 17 17 7 5 2 3 6 6 7 7 3 4 5 8 12 22 22 22 20 11
27 28 25 14 4 4 6 11 6 8 3 4 9 11 19 7 5 17 19 13 6 10 11 8 11 14 2 6 5 5 7 9 10 2 2 5 4 5 8 8 15 4 21 21 21
26 24 18 10 8 4 6 6 9 2 3 8 9 9 19 13 5 11 17 13 11 11 6 10 9 8 6 7 8 7 6 7 7 7 6 9 3 7 9 11 10 9 21 18 17
27 20 13 10 6 3 8 8 7 2 5 6 9 7 12 14 13 12 10 7 9 8 9 12 16 8 6 4 6 6 5 7 5 1 2 15 6 7 10 10 7 11 16 15 13
22 15 12 7 4 7 9 9 2 4 9 4 8 14 13 10 13 10 9 6 5 3 6 6 9 10 10 5 5 2 5 2 4 1 6 1 3 8 4 9 11 9 17 14 10
24 11 6 7 2 8 10 3 5 8 6 4 5 16 13 13 12 13 11 9 12 9 6 3 5 5 7 4 4 2 6 4 4 3 4 3 6 4 7 16 20 17 12 7 4
23 9 12 4 2 4 9 4 3 4 7 8 8 6 7 12 7 9 9 11 9 11 4 0 5 2 5 3 3 4 3 4 0 5 1 4 6 6 16 10 11 8 7 10 8
24 17 14 4 7 3 2 6 6 5 7 8 3 5 6 2 4 5 2 4 4 2 8 1 3 4 6 9 1 2 4 2 3 3 3 4 5 5 4 5 6 3 4 3 6
18 9 4 10 4 4 3 6 4 11 5 4 6 5 7 7 3 4 2 8 12 4 6 3 3 3 7 1 4 5 4 3 4 5 4 1 3 9 4 6 5 5 8 11 15
6 3 9 6 3 5 5 9 3 3 4 1 3 5 4 5 1 2 6 3 4 10 3 3 4 2 6 11 10 9 6 5 4 4 2 4 8 11 4 6 8 14 16 12 5
16 8 10 8 3 3 2 14 5 4 4 4 6 7 8 6 3 3 5 8 6 3 2 3 2 1 7 6 5 9 8 4 5 4 8 4 5 9 10 7 10 6 21 19 20
6 4 7 12 13 5 4 6 7 8 3 3 5 7 5 5 6 1 3 4 11 8 5 7 1 4 4 2 1 6 15 9 6 4 8 13 16 16 12 9 8 19 22 21 22
4 3 8 4 6 8 6 7 11 8 8 8 2 6 6 3 7 5 6 8 8 0 1 3 5 5 7 10 5 10 14 16 12 11 7 11 15 11 3 11 11 19 22 23 21
5 7 10 12 15 7 4 4 12 7 6 4 5 9 6 3 4 5 9 5 3 6 3 6 3 4 7 10 11 16 15 18 20 16 17 16 12 3 13 18 19 22 23 22 22
9 12 7 8 8 6 5 3 6 4 3 6 6 5 6 5 7 10 15 13 7 1 3 1 1 2 4 9 8 9 16 15 14 14 13 8 3 8 10 10 17 21 21 20 20
Wind_Direction
359 360 360 2 359 357 353 343 337 338 336 329 321 311 299 292 285 278 273 288 253 214 202 175 198 219 226 249 231 219 233 237 246 248 261 259 38 290 296 310 64 339 113 119 67
336 339 343 345 348 349 350 344 334 330 336 336 329 315 303 300 300 288 323 283 229 211 211 206 206 207 227 235 241 212 222 234 251 259 260 297 340 260 304 301 327 272 286 254 164
327 330 333 336 338 340 341 344 337 324 323 331 331 321 312 311 320 188 309 318 215 202 213 201 218 207 226 227 239 245 230 227 244 260 268 270 57 304 354 315 273 357 319 220 348
329 328 329 331 333 334 335 334 335 328 313 320 323 323 315 304 171 271 325 334 152 199 212 212 238 257 226 224 223 232 236 238 252 242 250 215 180 221 281 277 307 321 311 328 316
328 329 326 327 328 329 330 329 333 322 305 306 315 318 316 289 268 311 317 302 171 195 204 210 236 242 216 226 226 221 234 229 247 259 263 169 171 208 249 272 285 300 300 290 295
329 328 327 324 323 322 323 324 326 320 303 292 309 308 303 265 210 315 336 153 175 185 203 210 227 224 214 225 217 225 223 235 228 244 244 179 200 216 244 256 260 265 290 280 285
336 331 329 326 317 315 315 317 319 315 297 281 297 296 277 247 165 2 14 117 154 177 222 242 255 253 231 243 235 237 229 228 251 263 230 235 239 225 241 239 239 244 250 267 260
338 333 331 326 319 312 309 311 313 306 284 274 282 280 259 234 202 194 267 232 261 255 268 288 278 265 293 258 295 216 173 192 274 245 242 185 250 244 243 231 218 218 218 217 238
335 331 330 327 320 311 305 305 309 296 271 260 250 273 268 253 197 208 213 221 212 240 262 302 337 300 306 290 318 287 230 239 255 233 208 156 190 241 261 180 172 186 204 214 230
331 330 328 322 317 305 296 298 303 263 265 218 190 294 241 225 219 198 207 228 193 220 265 292 297 285 308 311 225 210 207 241 231 241 194 183 196 240 215 174 185 200 213 221 230
328 329 328 326 324 311 291 297 233 179 203 210 199 225 292 218 182 191 195 229 202 213 219 209 185 229 242 239 242 258 260 231 296 248 155 183 197 215 277 301 209 211 222 226 221
327 329 331 331 326 312 287 260 241 323 282 266 246 248 275 326 170 200 192 199 241 230 218 250 224 237 242 244 236 248 285 322 327 344 101 178 206 214 311 278 272 263 251 248 209
328 332 333 335 338 352 317 312 311 352 297 279 234 221 227 234 261 198 194 210 231 227 248 220 237 226 246 275 326 13 344 312 296 313 349 83 348 317 272 257 253 252 243 237 138
329 333 337 345 336 351 339 3 326 312 302 213 175 221 205 189 263 230 197 210 228 241 237 249 262 266 197 314 317 321 263 257 259 359 276 41 276 289 274 263 235 242 102 96 87
328 333 332 328 320 323 2 337 326 282 285 180 155 161 178 177 182 208 201 204 253 273 338 290 312 321 234 201 216 234 58 32 10 5 28 323 350 267 261 261 92 87 87 87 82
325 329 316 287 289 22 353 332 303 259 253 192 143 188 151 207 237 150 159 215 262 284 281 275 308 296 306 222 223 82 53 13 346 355 332 249 204 266 263 147 120 101 95 89 86
323 317 285 249 259 5 331 304 253 242 158 210 168 162 183 201 227 164 177 184 213 193 261 288 271 281 315 343 318 121 86 344 332 251 219 321 292 231 187 122 124 117 102 96 96
323 298 273 261 285 2 317 298 242 301 130 285 159 168 186 207 216 187 176 202 214 240 285 275 312 263 35 53 17 339 126 141 236 239 286 308 205 242 145 105 96 99 105 128 141
326 295 267 205 308 347 303 258 236 271 8 358 330 297 233 210 184 215 196 210 196 190 192 117 269 310 252 290 75 2 58 126 297 250 321 255 301 351 109 103 112 141 176 199 206
328 319 282 226 203 225 254 265 284 79 27 325 291 353 348 97 226 356 93 346 311 122 116 96 352 341 336 312 59 282 299 34 346 4 272 272 260 126 90 100 84 31 305 290 271
328 320 190 166 232 236 227 249 257 105 84 336 360 336 346 346 46 298 60 326 333 335 116 98 115 290 11 283 185 280 236 198 165 150 201 320 269 123 133 152 186 234 245 253 262
358 269 197 177 168 223 242 286 313 319 164 219 262 277 281 358 355 10 1 48 307 328 339 35 126 272 243 265 235 233 236 197 150 258 251 186 249 334 320 228 211 235 236 257 352
330 273 242 202 238 245 326 279 272 187 247 22 356 8 7 348 351 12 20 41 41 312 357 4 178 311 318 269 247 230 239 235 155 145 228 228 264 290 285 288 305 15 51 33 27
307 293 204 210 249 277 323 299 325 118 102 82 20 356 327 337 348 275 303 46 39 40 101 82 327 189 207 149 350 328 323 284 206 183 236 251 267 271 271 272 50 42 36 20 10
265 286 8 335 334 334 344 326 313 314 69 85 303 73 55 344 346 332 10 21 2 250 15 131 213 238 261 275 229 229 247 277 276 272 232 241 245 261 341 68 52 35 16 8 14
299 347 328 306 300 276 293 266 284 46 27 57 35 30 37 337 323 327 349 3 302 7 35 12 303 290 283 286 280 271 249 227 254 259 270 270 271 27 61 44 31 18 40 20 5
332 329 342 297 306 318 278 55 68 77 23 70 54 40 351 339 5 316 303 296 285 254 7 73 276 17 260 266 326 288 247 247 251 246 267 269 50 51 34 29 21 48 23 2 342